Regional Weather Roundup
Issued by NWS Charleston, SC

Current Version | Previous Version | Text Only | Print | Product List | Glossary Off
Versions: 1 2 3 4 5 6 7 8 9 10 11 12 13 14 15 16 17 18 19 20 21 22 23 24 25 26 27 28 29 30 31 32 33 34 35 36 37 38 39 40 41 42 43 44 45 46 47 48 49 50
000 ASUS42 KCHS 300528 RWRCHS REGIONAL WEATHER ROUNDUP NATIONAL WEATHER SERVICE CHARLESTON SC 100 AM EDT MON MAY 30 2016 NOTE: "FAIR" INDICATES FEW OR NO CLOUDS BELOW 12,000 FEET WITH NO SIGNIFICANT WEATHER AND/OR OBSTRUCTIONS TO VISIBILITY. NOT ALL STATIONS ARE QUALITY CONTROLLED. USE DATA WITH CAUTION... ESPECIALLY DEWPOINT OBSERVATIONS. SCZ027-030-031-034>040-042>050-300600- ...SOUTHEAST SOUTH CAROLINA... CITY SKY/WX TMP DP RH WIND PRES REMARKS N CHARLESTON CLOUDY 71 67 87 N6 29.92F WATERFRONT PRK N/A 71 70 96 N5 29.90S MOUNT PLEASANT CLOUDY 70 70 100 NW6 29.91S FOG JOHNS ISLAND CLOUDY 72 70 94 CALM 29.92S PINOPOLIS N/A 73 70 88 NE6 29.87S MONCKS CORNER CLOUDY 66 64 94 N3 29.92F SUMMERVILLE NOT AVBL BEAUFORT MCAS LGT RAIN 70 68 93 W9 29.95F BEAUFORT ARPT LGT RAIN 70 68 94 W9 29.94F HILTON HEAD IS CLOUDY 70 68 94 W7 29.96F WALTERBORO RAIN 72 72 100 NE7 29.94S ALLENDALE CLOUDY 70 68 94 NW3 29.97S ...SOUTHERN MIDLANDS AND PEE DEE... CITY SKY/WX TMP DP RH WIND PRES REMARKS GEORGETOWN LGT RAIN 70 68 94 SE6 29.93F KINGSTREE CLOUDY 70 68 94 CALM 29.94F ORANGEBURG LGT RAIN 70 68 93 N6 29.96S FOG BARNWELL CLOUDY 72 72 100 N8 29.98F AIKEN CLOUDY 70 61 73 N8 30.03F MANNING CLOUDY 68 68 100 N3 29.95S COLUMBIA CLOUDY 72 65 78 NW7 29.98S SUMTER LGT RAIN 70 68 94 NE12 29.94S FLORENCE CLOUDY 72 69 90 NE8 29.97F MYRTLE BEACH CLOUDY 73 64 73 SE10 29.97F N MYRTLE BEACH CLOUDY 75 69 81 SE9 29.95F $$ GAZ063-065-086>088-099>101-113>116-118-119-134>141-150-300600- ...SOUTHEAST GEORGIA... CITY SKY/WX TMP DP RH WIND PRES REMARKS SAVANNAH ARPT CLOUDY 70 63 78 W7 29.98S HUNTER AAF CLOUDY 70 67 89 W2 29.96S FORT STEWART CLOUDY 73 61 65 CALM 29.97F STATESBORO CLOUDY 69 67 94 N5 29.98F SYLVANIA CLOUDY 71 66 85 NW5 29.99F CLAXTON FAIR 68 67 96 SW3 30.00S ...CSRA...CENTRAL AND FAR SOUTHEAST GEORGIA... CITY SKY/WX TMP DP RH WIND PRES REMARKS THOMSON CLEAR 64 64 100 CALM 30.07F AUGUSTA-BUSH CLOUDY 72 61 68 N7 30.00S AUGUSTA-DANIEL LGT RAIN 72 60 66 N8 30.01F SWAINSBORO FAIR 68 63 83 CALM 30.01F VIDALIA CLOUDY 72 61 68 NW5 30.01F EASTMAN FAIR 70 70 100 CALM 30.04F HAZLEHURST MOCLDY 74 62 64 CALM 30.01F ALMA MOCLDY 68 65 90 CALM 30.01F WAYCROSS CLOUDY 68 65 88 CALM 30.01F JESUP FAIR 66 59 77 NE5 30.00F BAXLEY FAIR 70 64 83 CALM 30.01S BRUNSWICK CLOUDY 77 64 65 CALM 30.00F SAINT SIMONS CLOUDY 76 61 59 W3 29.99F $$ SCZ027-028-034-036>038-045-046-048>050-GAZ119-141-300600- ...LAKE AND SUPPLEMENTAL COASTAL OBSERVATIONS... STATION/POSITION TIME TEMP WIND PRES WAVE SWELL AIR SEA DIR/SP/G HT/PER HT/PER/DIR (UTC) (F) (DEG/KT/KT) (MB) (FT/S) (FT/S/D) WINYAH BAY 0400 73 130/ 8 1013.0 LAKE MURRAY 0400 71 340/ 2/ 7 1015.6R ACE BASIN NERRS 0400 70 CALM 1014.0S FORT PULASKI 0500 71 76 300/ 11/ 13 1015.1F SAPELO ISLAND 0500 75 CALM 1016.0S $$ ANZ835-935-AMZ111-154-330-350-352-354-370-450-454-472-300600- ...C-MAN AND BUOY OBSERVATIONS... STATION/POSITION TIME TEMP WIND PRES WAVE SWELL AIR SEA DIR/SP/G HT/PER HT/PER/DIR (UTC) (F) (DEG/KT/KT) (MB) (FT/S) (FT/S/D) BUOY 41004 0450 74 77 200/ 19/ 23 1012.6F 7/ 7 2/14 BUOY 41008 0450 74 75 280/ 12/ 16 1015.0F 2/ 8 2/ 90/ 8 FOLLY BEACH CMAN 0500 70 260/ 6/ 8 1013.2S CAPERS NEARSHORE 0508 71 76 250/ 6/ 8 1012.1F FRIPP NEARSHORE 0508 71 75 290/ 16/ 21 1012.9F STATION/POSITION TIME TEMP WIND PRES WAVE SWELL AIR SEA DIR/SP/G HT/PER HT/PER/DIR (UTC) (F) (DEG/KT/KT) (MB) (FT/S) (FT/S/D) 5E ST. MARYS GA 0501 78 N/A 2/ 8 FRYING PAN BUOY 0500 78 78 180/ 16/ 19 1014.8F BUOY 41025 0450 77 81 160/ 16/ 21 1017.2R 5/ 7 2/160/ 8 CAPE LOOKOUT NC 0500 75 140/ 10/ 11 1016.4F BUOY 41002 0450 75 76 130/ 14/ 16 1017.8R 4/ 7 3/170/ 7 BUOY 41010 0420 78 79 160/ 6/ 8 1017.4F ST AUGUSTINE FL 0500 73 80 220/ 8/ 10 1017.3F $$

USA.gov is the U.S. government's official web portal to all federal, state and local government web resources and services.